Regional Weather Roundup
Issued by NWS Lake Charles, LA

Home | Current Version | Previous Version | Text Only | Print | Product List | Glossary On
Versions: 1 2 3 4 5 6 7 8 9 10 11 12 13 14 15 16 17 18 19 20 21 22 23 24 25 26 27
000
ASUS44 KLCH 191610
RWRLCH
REGIONAL WEATHER ROUNDUP
NATIONAL WEATHER SERVICE LAKE CHARLES LA
1100 AM CDT THU APR 19 2018

Note: "fair" indicates few or no clouds below 12,000 feet with no
significant weather and/or obstructions to visibility.


ACROSS SOUTHEAST TEXAS

CITY           SKY/WX    TMP DP  RH WIND       PRES   REMARKS
BEAUMONT       FAIR      69  41  36 N13       30.26R
BEAUMONT CITY  FAIR      69  38  31 N15       30.27S
ORANGE         FAIR      67  42  39 N9        30.29R
JASPER         FAIR      66  37  34 N13       30.32S
$$

ACROSS CENTRAL LOUISIANA

CITY           SKY/WX    TMP DP  RH WIND       PRES   REMARKS
LEESVILLE      NOT AVBL
FULLERTON      FAIR      63  42  46 N8        30.26R
ALEXANDRIA INT FAIR      63  40  42 NE12      30.28R
ESLER FIELD    FAIR      63  37  38 NE8       30.29R
DERIDDER       FAIR      64  37  37 N12G18    30.30S
OAKDALE        FAIR      66  43  44 N13       30.27R
OPELOUSAS      FAIR      67  44  43 N15G22    30.25S
$$

ACROSS SOUTHWEST AND SOUTH CENTRAL LOUISIANA

CITY           SKY/WX    TMP DP  RH WIND       PRES   REMARKS
SULPHUR        FAIR      69  41  36 N9        30.27S
LAKE CHARLES   FAIR      69  41  36 NE13      30.26R
CHENNAULT INT  SUNNY     68  43  40 N14       30.26S
CAMERON PHI    SUNNY     66  43  42 N16       30.25S
DEQUINCY       FAIR      65  40  40 N9        30.28R
JENNINGS       FAIR      68  44  41 N12       30.25S
LAFAYETTE      FAIR      71  44  37 NE15      30.23R
NEW IBERIA     FAIR      72  45  37 N12       30.24R
ABBEVILLE      NOT AVBL
PATTERSON      CLOUDY    70  50  49 N13       30.22R
SALT POINT       N/A    N/A N/A N/A VRB7      30.20R
$$

SELECTED SITES ACROSS THE REGION

CITY           SKY/WX    TMP DP  RH WIND       PRES   REMARKS
HOUSTON BUSH   FAIR      70  36  28 NE16G24   30.28S
HOUSTON HOBBY  FAIR      70  37  29 NE18G24   30.27S
GALVESTON      CLOUDY    68  44  42 NE16      30.27R
COLLEGE STAT   SUNNY     70  36  28 N15G26    30.32R
CONROE         SUNNY     68  36  30 NE13G23   30.30R
HUNTSVILLE     SUNNY     66  38  35 NE9G18    30.31S
LUFKIN         SUNNY     64  38  38 NE8G18    30.32R
SHREVEPORT     FAIR      62  35  36 N10G18    30.33R
MONROE         FAIR      59  36  42 N13       30.32R
NATCHEZ MS     FAIR      60  41  49 N9G17     30.28R
BATON ROUGE    FAIR      69  46  43 NW10      30.23R
N.O. INTL ARPT FAIR      72  51  47 N8        30.19R
SLIDELL        FAIR      72  53  51 N9        30.18R
$$

MARINE REPORTS

STATION/POSITION TIME  SKY/WX   TEMP    WIND        PRES    VSBY
                                AIR SEA DIR/SP/G
                 (UTC)          (F)     (DEG/KT/KT) (MB)    (MI)
BUOY 30 S HIGH I 1450            67 70   20/ 17/ 19 1024.0
WVE H/P(F/S)=  4/ 5

SEA RIM ST PARK  1600            67      40/ 12/ 15 1025.0S
PORT ARTHUR      1542            66 68   40/  7/ 13 1025.0R
SABINE PASS N    1542            65 71   20/ 17/ 24 1026.3R
TEXAS POINT      NOT AVBL
CALCASIEU PASS   1548            65 70   40/ 12/ 17 1023.4R
LK CHARLES BEACH 1542            65 68              1024.2S
MARSH ISLAND     1500            67                   N/A
FRESH WATER LOCK 1542            67 71              1023.5R
AMERADA PASS     1542            68 65  340/  5/  7 1022.6R
$$




USA.gov is the U.S. government's official web portal to all federal, state and local government web resources and services.